sat.trackr.live / text

‹ back to catalog

STARLINK-34122

NORAD 64117 · 2025-110X

PAYLOAD ACTIVE UNKNOWN

§ Identity

Operator
Country
US
Launch date
2025-05-23
Launch site
AFWTR
Launch vehicle
Mass (kg)
RCS (m²)

Purposes: comms

External: N2YO · Heavens-Above · Gunter

§ Orbital elements

Epoch: 2026-09-20T02:43:29.588160Z

Period
94.01 min
Inclination
53.1598°
Eccentricity
0.0001774
Mean motion
15.31715060 rev/d
Perigee alt
469.5 km
Apogee alt
471.9 km
Semi-major
6,848.8 km
B*
4.5295e-4
RAAN
201.9793°
Arg perigee
90.9386°
Mean anomaly
269.1819°
Rev number
7,566

§ Raw data

STARLINK-341221 64117U 25110X   26263.11353690  .00013723  00000+0  45295-3 0  99982 64117  53.1598 201.9793 0001774  90.9386 269.1819 15.31715060 75666

JSON: /api/v1/satellites/64117 · /tle

For live sub-satellite position, see the globe view (requires WebGL).

§ Visibility from observer

Set your observer location to see the next 7 days of passes ≥ 10°. The values pass through the URL so the page stays shareable.

No JS? Fill the form by hand. The geolocation button needs JavaScript.